Voltar ao catálogo

FENGYUN 1C DEB

AtivoSSO
NORAD 31515·DEBRIS·🇨🇳 China

Lançado May 10, 1999 de Taiyuan Satellite Launch Center

Loading…

Próximas Passagens (próximas 24 horas)

TLE

AtualizadoSource: Space-Track

Época: Sep 12, 2026, 01:53 UTC

1 31515U 99025BXE 26255.07902699  .00000826  00000-0  47459-3 0  9990
2 31515  98.8896 343.9396 0054873  93.3065 267.4385 14.11300192622181

Acompanhe FENGYUN 1C DEB em tempo real com AllMySat

Download on the App Store